Weather reports worldwide

Advertisment
Aviemore, United Kingdom (3063): temperature & dewpoint: 16.09.2018 22:00:00 - 22.09.2018 22:00:00 (BST)Aviemore, United Kingdom (3063): temperature -20cm & temperature -100cm: 16.09.2018 22:00:00 - 22.09.2018 22:00:00 (BST)Aviemore, United Kingdom (3063): wind speed & gusts: 16.09.2018 22:00:00 - 22.09.2018 22:00:00 (BST)Aviemore, United Kingdom (3063): wind direction: 16.09.2018 22:00:00 - 22.09.2018 22:00:00 (BST)Aviemore, United Kingdom (3063): reduced air pressure: 16.09.2018 22:00:00 - 22.09.2018 22:00:00 (BST)Aviemore, United Kingdom (3063): visibility: 16.09.2018 22:00:00 - 22.09.2018 22:00:00 (BST)Aviemore, United Kingdom (3063): sunshine duration: 16.09.2018 22:00:00 - 22.09.2018 22:00:00 (BST)Aviemore, United Kingdom (3063): precipitation: 16.09.2018 22:00:00 - 22.09.2018 22:00:00 (BST)
Date & Time tt [°C] td [°C] tt -20cm [°C] tt -100cm [°C] ff [km/h] ff [kn] fx [km/h] fx [kn] dd ppp [hPa] vv [km] sd [min] rr [mm]
22.09.2018 22:00:00 4,4 3,2 - - 4 2 - - SW 1015,5 29 0 0,0
22.09.2018 21:00:00 5,0 3,4 - - 4 2 - - W 1015,0 30 0 0,0
22.09.2018 20:00:00 6,3 4,0 - - 4 2 - - WSW 1014,4 28 0 0,0
22.09.2018 19:00:00 8,0 4,2 - - 4 2 - - WSW 1013,5 17 0 0,0
22.09.2018 18:00:00 8,5 3,8 - - 5 3 - - W 1013,1 30 18 0,0
22.09.2018 17:00:00 9,6 5,0 - - 8 4 - - WSW 1012,8 30 24 0,8
22.09.2018 16:00:00 10,4 3,5 - - 9 5 - - WSW 1012,7 16 48 0,2
22.09.2018 15:00:00 11,3 3,6 - - 11 6 - - W 1012,0 30 30 0,2
22.09.2018 14:00:00 12,5 3,2 - - 8 4 - - WSW 1011,4 30 48 0,0
22.09.2018 13:00:00 9,9 2,9 - - 9 5 - - WSW 1011,5 21 18 0,0
22.09.2018 12:00:00 11,0 3,8 - - 15 8 - - WSW 1010,6 30 36 0,0
22.09.2018 11:00:00 10,1 3,3 - - 15 8 46 25 W 1010,3 35 18 0,0
22.09.2018 10:00:00 8,9 3,5 11,7 12,7 13 7 - - WSW 1010,0 28 0 0,0
22.09.2018 09:00:00 7,4 2,9 - - 8 4 - - SW 1009,7 30 0 0,0
22.09.2018 08:00:00 6,8 2,8 - - 11 6 - - WSW 1009,2 27 0 0,0
22.09.2018 07:00:00 5,3 2,2 - - 5 3 - - SW 1008,7 28 0 0,0
22.09.2018 06:00:00 6,5 2,8 - - 13 7 - - SSW 1007,7 26 0 0,0
22.09.2018 05:00:00 6,3 3,1 - - 8 4 - - SW 1007,8 24 0 0,0
22.09.2018 04:00:00 4,9 2,6 - - 5 3 - - SSW 1007,7 26 0 0,0
22.09.2018 03:00:00 5,8 3,5 - - 9 5 - - SW 1007,1 24 0 0,0
22.09.2018 02:00:00 6,0 3,2 - - 9 5 - - SW 1006,7 29 0 0,0
22.09.2018 01:00:00 5,5 2,8 - - 5 3 - - SSW 1006,5 29 - 0,0
22.09.2018 00:00:00 6,1 2,9 - - 8 4 - - SW 1006,1 27 0 0,0
21.09.2018 23:00:00 5,6 2,2 - - 11 6 - - SW 1006,0 30 0 0,2
21.09.2018 22:00:00 6,1 4,0 - - 9 5 - - SW 1005,5 30 0 0,0
21.09.2018 21:00:00 7,0 3,9 - - 9 5 - - SW 1004,9 24 0 0,0
21.09.2018 20:00:00 6,8 3,5 - - 8 4 - - SW 1004,2 35 0 0,0
21.09.2018 19:00:00 7,1 4,1 - - 5 3 - - WSW 1003,6 40 0 0,4
21.09.2018 18:00:00 9,1 2,8 - - 9 5 - - W 1002,9 35 24 0,0
21.09.2018 17:00:00 10,4 2,6 - - 11 6 - - W 1001,9 35 48 0,0
21.09.2018 16:00:00 10,8 3,6 - - 11 6 - - WNW 1001,0 30 54 0,0
21.09.2018 15:00:00 11,0 4,3 - - 8 4 - - NW 999,6 35 48 0,0
21.09.2018 14:00:00 8,7 4,6 - - 9 5 - - NNW 998,7 7 18 0,4
21.09.2018 13:00:00 8,5 5,1 - - 8 4 - - N 997,3 29 0 0,0
21.09.2018 12:00:00 7,8 5,7 - - 4 2 - - N 996,0 24 0 0,6
21.09.2018 11:00:00 7,7 5,6 - - 4 2 - - N 994,7 6 0 0,4
21.09.2018 10:00:00 7,5 4,9 12,0 12,7 5 3 - - WNW 993,6 10 0 0,2
21.09.2018 09:00:00 7,5 4,1 - - 5 3 - - WSW 992,5 35 0 0,0
21.09.2018 08:00:00 5,7 4,7 - - 2 1 - - SSW 992,3 27 0 0,0
21.09.2018 07:00:00 6,1 4,9 - - 4 2 - - SW 992,1 27 0 0,0
21.09.2018 06:00:00 5,6 5,0 - - 4 2 - - SSW 991,8 28 0 0,0
21.09.2018 05:00:00 5,4 5,1 - - 4 2 - - S 992,3 26 0 0,0
21.09.2018 04:00:00 5,4 5,1 - - 2 1 - - WSW 992,9 18 0 0,0
21.09.2018 03:00:00 5,7 5,4 - - 2 1 - - W 993,4 18 0 0,2
21.09.2018 02:00:00 6,0 5,7 - - 2 1 - - NNW 994,3 8 0 0,6
21.09.2018 01:00:00 5,8 5,1 - - 2 1 - - NW 994,7 23 - 0,0
21.09.2018 00:00:00 6,0 5,1 - - 2 1 - - N 995,8 24 0 0,0
20.09.2018 23:00:00 6,2 4,9 - - 2 1 - - WSW 996,5 29 0 0,0
20.09.2018 22:00:00 7,4 5,0 - - 8 4 - - W 997,3 30 0 0,0
20.09.2018 21:00:00 7,0 4,9 - - 4 2 - - SSW 998,2 35 0 0,0
20.09.2018 20:00:00 7,3 5,4 - - 4 2 - - NNW 998,4 27 0 0,0
20.09.2018 19:00:00 8,4 5,8 - - 2 1 - - WSW 999,2 30 0 0,0
20.09.2018 18:00:00 9,3 5,3 - - 8 4 - - WSW 999,6 24 0 0,0
20.09.2018 17:00:00 9,8 5,1 - - 9 5 - - SW 1000,5 35 0 0,0
20.09.2018 16:00:00 11,4 4,1 - - 11 6 - - SSW 1000,0 35 0 0,0
20.09.2018 15:00:00 11,8 1,9 - - 18 10 54 29 SSW 999,6 40 24 0,0
20.09.2018 14:00:00 12,8 4,3 - - 16 9 48 26 SW 999,3 35 60 0,0
20.09.2018 13:00:00 12,8 5,8 - - 21 11 50 27 SW 999,2 35 54 0,0
20.09.2018 12:00:00 12,0 5,8 - - 22 12 59 32 SW 999,1 35 42 0,0
20.09.2018 11:00:00 9,1 5,0 - - 18 10 48 26 SW 999,5 27 42 0,0
20.09.2018 10:00:00 9,5 6,3 12,2 12,9 13 7 46 25 SSW 998,8 35 42 0,4
20.09.2018 09:00:00 7,9 6,2 - - 11 6 - - SSW 998,7 30 12 0,4
20.09.2018 08:00:00 7,1 5,1 - - 11 6 - - SSW 999,0 6 6 0,2
20.09.2018 07:00:00 6,1 5,1 - - 9 5 - - SSW 998,9 27 0 0,2
20.09.2018 06:00:00 6,6 5,3 - - 11 6 - - SSW 998,6 18 0 0,2
20.09.2018 05:00:00 6,4 4,9 - - 9 5 - - SSW 998,5 30 0 0,2
20.09.2018 04:00:00 6,1 4,5 - - 13 7 - - SSW 998,4 45 0 0,6
20.09.2018 03:00:00 6,3 5,3 - - 13 7 - - SSW 997,8 26 0 0,6
20.09.2018 02:00:00 5,7 4,5 - - 11 6 - - SSW 997,4 23 0 0,2
20.09.2018 01:00:00 5,9 4,7 - - 15 8 - - SSW 997,2 30 - 3,6
20.09.2018 00:00:00 6,3 4,9 - - 13 7 - - SSW 997,2 55 0 0,6
19.09.2018 23:00:00 6,6 5,4 - - 11 6 - - SSW 996,9 5 0 0,4
19.09.2018 22:00:00 6,6 5,6 - - 15 8 - - SSW 996,3 16 0 0,8
19.09.2018 21:00:00 7,0 5,2 - - 15 8 - - SW 995,2 35 0 2,0
19.09.2018 20:00:00 7,3 6,2 - - 9 5 - - SSW 994,2 9 0 0,2
19.09.2018 19:00:00 7,4 5,8 - - 15 8 - - SSW 993,0 20 0 1,0
19.09.2018 18:00:00 8,2 6,1 - - 16 9 - - SSW 991,2 19 0 0,6
19.09.2018 17:00:00 8,8 6,2 - - 15 8 50 27 SW 989,6 16 12 0,4
19.09.2018 16:00:00 10,0 6,4 - - 21 11 61 33 SW 985,6 35 24 0,4
19.09.2018 15:00:00 9,9 9,1 - - 11 6 46 25 SW 981,7 2,8 0 7,6
19.09.2018 14:00:00 11,8 7,2 - - 21 11 54 29 SSW 980,2 35 0 0,6
19.09.2018 13:00:00 12,0 8,2 - - 21 11 63 34 SW 980,1 18 12 1,8
19.09.2018 12:00:00 12,3 9,9 - - 5 3 - - SE 979,5 7 12 0,4
19.09.2018 11:00:00 10,8 8,5 - - 8 4 - - ESE 985,4 9 6 0,4
19.09.2018 10:00:00 9,1 6,1 13,0 12,9 15 8 46 25 SSW 988,8 30 0 0,4
19.09.2018 09:00:00 10,2 5,1 - - 22 12 46 25 SSW 991,2 29 0 0,0
19.09.2018 08:00:00 9,7 5,2 - - 16 9 - - SSW 993,9 35 0 0,0
19.09.2018 07:00:00 9,2 6,2 - - 11 6 - - SW 995,7 45 0 0,0
19.09.2018 06:00:00 8,9 6,8 - - 16 9 - - SSW 996,0 45 0 0,0
19.09.2018 05:00:00 8,5 7,4 - - 11 6 - - SW 995,9 40 0 0,4
19.09.2018 04:00:00 8,4 6,7 - - 11 6 - - SW 995,9 30 0 0,0
19.09.2018 03:00:00 6,7 5,6 - - 11 6 - - SW 995,2 18 0 0,2
19.09.2018 02:00:00 6,6 5,3 - - 21 11 54 29 SW 996,3 4,8 0 4,4
19.09.2018 01:00:00 10,9 7,3 - - 13 7 - - SSW 993,7 40 - 0,0
19.09.2018 00:00:00 9,9 7,9 - - 9 5 - - SW 994,8 35 0 0,0
18.09.2018 23:00:00 10,5 8,7 - - 9 5 - - SW 995,4 18 0 0,0
18.09.2018 22:00:00 11,1 9,5 - - 8 4 - - SSW 995,1 35 0 0,6
18.09.2018 21:00:00 11,2 9,6 - - 5 3 - - W 994,6 40 0 0,0
18.09.2018 20:00:00 12,1 10,2 - - 9 5 - - SW 994,9 45 0 0,0
18.09.2018 19:00:00 12,4 10,7 - - 15 8 - - SW 994,3 18 0 0,8
18.09.2018 18:00:00 14,7 9,9 - - 9 5 - - SW 993,6 40 6 0,0
18.09.2018 17:00:00 15,4 10,4 - - 16 9 46 25 SW 993,2 45 30 0,0
18.09.2018 16:00:00 15,5 12,0 - - 21 11 46 25 SW 992,2 45 18 0,2
18.09.2018 15:00:00 15,6 14,2 - - 4 2 - - SW 991,7 30 0 0,2
18.09.2018 14:00:00 15,9 14,9 - - 9 5 - - SW 991,3 11 0 0,4
18.09.2018 13:00:00 15,9 15,2 - - 4 2 - - S 991,6 8 0 0,6
18.09.2018 12:00:00 15,1 14,2 - - 2 1 - - E 991,9 35 0 0,0
18.09.2018 11:00:00 14,5 14,0 - - 2 1 - - ENE 992,3 26 0 0,0
18.09.2018 10:00:00 14,1 13,7 13,0 12,9 4 2 - - NE 992,8 6 0 0,4
18.09.2018 09:00:00 13,7 13,3 - - 4 2 - - NNE 993,2 35 0 0,0
18.09.2018 08:00:00 13,6 13,1 - - 4 2 - - N 993,1 30 0 0,2
18.09.2018 07:00:00 14,3 13,1 - - 8 4 - - SW 993,1 19 0 0,6
18.09.2018 06:00:00 14,4 13,0 - - 8 4 - - SW 993,4 14 0 0,2
18.09.2018 05:00:00 14,8 12,8 - - 11 6 - - SW 993,9 30 0 0,0
18.09.2018 04:00:00 15,1 12,8 - - 11 6 - - SW 994,6 60 0 0,0
18.09.2018 03:00:00 14,8 13,0 - - 13 7 - - SW 994,9 55 0 0,0
18.09.2018 02:00:00 14,5 13,2 - - 16 9 - - SW 994,5 12 0 1,4
18.09.2018 01:00:00 14,5 13,5 - - 16 9 52 28 SW 995,0 3,9 - 4,6
18.09.2018 00:00:00 14,8 13,6 - - 16 9 - - SW 995,0 5 0 3,0
17.09.2018 23:00:00 15,0 13,8 - - 18 10 - - SW 995,1 9 0 3,6
17.09.2018 22:00:00 14,7 13,7 - - 16 9 - - SW 995,8 4,0 0 3,6
17.09.2018 21:00:00 14,1 13,1 - - 18 10 - - SW 995,6 10 0 4,2
17.09.2018 20:00:00 13,5 12,6 - - 16 9 - - SW 996,4 3,1 0 3,8
17.09.2018 19:00:00 13,3 11,7 - - 15 8 - - SW 997,3 4,2 0 1,0
17.09.2018 18:00:00 13,7 10,7 - - 13 7 - - SW 998,1 14 0 0,0
17.09.2018 17:00:00 13,9 10,0 - - 11 6 - - SW 1000,0 30 0 0,0
17.09.2018 16:00:00 13,3 9,6 - - 8 4 - - SW 1001,4 19 0 0,0
17.09.2018 15:00:00 13,4 10,1 - - 8 4 - - SSW 1003,1 28 0 0,0
17.09.2018 14:00:00 12,0 9,8 - - 9 5 - - SSW 1004,8 10 0 0,8
17.09.2018 13:00:00 12,7 9,3 - - 8 4 - - S 1004,7 12 0 0,0
17.09.2018 12:00:00 12,6 9,8 - - 8 4 - - SW 1005,9 27 0 0,0
17.09.2018 11:00:00 12,1 10,1 - - 9 5 - - SSW 1006,3 13 0 0,2
17.09.2018 10:00:00 12,0 9,4 12,7 13,0 5 3 - - SW 1007,6 9 0 0,0
17.09.2018 09:00:00 11,9 9,2 - - 8 4 - - SW 1007,3 35 0 0,0
17.09.2018 08:00:00 11,5 8,8 - - 11 6 - - SW 1007,3 35 0 0,0
17.09.2018 07:00:00 10,4 9,0 - - 11 6 - - SW 1007,6 8 0 0,0
17.09.2018 06:00:00 10,3 8,4 - - 9 5 - - WSW 1007,6 29 0 0,0
17.09.2018 05:00:00 9,9 8,4 - - 8 4 - - SW 1008,6 40 0 0,0
17.09.2018 04:00:00 9,9 7,8 - - 9 5 - - SW 1008,6 35 0 0,0
17.09.2018 03:00:00 10,2 8,2 - - 11 6 - - SW 1008,4 16 0 0,0
17.09.2018 02:00:00 10,1 8,2 - - 13 7 - - SW 1008,4 6 0 0,0
17.09.2018 01:00:00 9,7 8,2 - - 9 5 - - SSW 1008,6 12 - -
17.09.2018 00:00:00 9,3 6,5 - - 8 4 - - SSW 1008,9 29 0 0,0
16.09.2018 23:00:00 9,1 5,9 - - 8 4 - - SW 1008,9 35 0 0,0
16.09.2018 22:00:00 8,9 6,5 - - 8 4 - - SW 1009,6 30 0 0,0

tt = temperature
td = dewpoint
tt -20cm = temperature -20cm
tt -100cm = temperature -100cm
ff = wind speed
fx = gusts
dd = wind direction
ppp = reduced air pressure
vv = visibility
sd = sunshine duration
rr = precipitation

Next stations